Location: Palomar Mountain Lodge
(33.3110°N, 116.8495°W)
Time: 20:41:32
(UTC-07:00)

Cosmos 1758 Rocket - Visible Passes

Search period start: 18 March 2019 00:00
Search period end: 28 March 2019 00:00
Orbit: 602 x 636 km, 82.5° (Epoch: 17 March)

Date Brightness Start Highest point End Pass type
(mag) Time Alt. Az. Time Alt. Az. Time Alt. Az.
20 Mar 6.4 21:37:44 10° N 21:37:54 11° N 21:37:54 11° N visible
21 Mar 6.4 21:55:12 10° NNW 21:55:41 13° NNW 21:55:41 13° NNW visible
22 Mar 5.8 20:35:34 10° NNE 20:36:19 13° NNE 20:36:19 13° NNE visible
22 Mar 6.6 22:13:06 10° NW 22:13:30 12° NW 22:13:30 12° NW visible
23 Mar 5.2 20:52:16 10° N 20:54:12 23° NNE 20:54:12 23° NNE visible
24 Mar 4.7 21:09:25 10° N 21:12:08 37° N 21:12:08 37° N visible
25 Mar 5.5 19:51:29 10° NE 19:52:56 12° ENE 19:52:56 12° ENE visible
25 Mar 4.9 21:26:55 10° NNW 21:30:08 38° NW 21:30:08 38° NW visible
26 Mar 4.8 20:07:10 10° NNE 20:10:44 23° ENE 20:11:01 23° E visible
26 Mar 5.7 21:44:52 10° NW 21:48:13 24° W 21:48:13 24° W visible
27 Mar 3.9 20:23:55 10° N 20:28:13 44° E 20:29:11 38° ESE visible
27 Mar 6.5 22:03:50 10° WNW 22:05:35 12° W 22:06:25 12° W visible
